Weather in Bir Lehlou

Sahrawi Arab Democratic Republic     26°20′58″N   9°34′35″W
temp.,
°C
wind,
m/s
gust,
m/s
humid.,
%
clouds,
%
prec.,
mm/h
press.,
hPa
HPBL,
m
2 december, thu
thu201:00+14ne57310 0.0 102177
04:00+13nne56340 0.0 102070
07:00+11nne56360 0.0 102057
10:00+14n57310 0.0 1020235
13:00+19nnw77200 0.0 1019973
16:00+21nnw67180 0.0 10161326
19:00+18nnw81233100 0.0 1016373
22:00+15nnw9146396 0.0 1018539
3 december, fri
fri301:00+13nnw1118760 0.0 1017577
04:00+13nnw1018750 0.0 1016494
07:00+12n813750 0.0 1017421
10:00+13nne712630 0.0 1019584
13:00+19ene1011290 0.0 10181032
16:00+21ene911240 0.0 10171348
19:00+18ene712260 0.0 1018240
22:00+15ene611310 0.0 1021227
4 december, sat
sat401:00+14ene612330 0.0 1022230
04:00+12ene713340 0.0 1022252
07:00+11ene612370 0.0 1023215
10:00+13ene711330 0.0 1025466
13:00+17e89210 0.0 1024928
16:00+19e78160 0.0 10211137
19:00+16ene57200 0.0 102295
22:00+14ene57250 0.0 102385
5 december, sun
sun501:00+12ene46290 0.0 102463
04:00+11ene45320 0.0 102355
07:00+10ene44350 0.0 102339
10:00+12ene57300 0.0 1024239
13:00+18ene66200 0.0 1023789
16:00+20ene66160 0.0 10191055
19:00+17ene44200 0.0 102037
22:00+15ene44240 0.0 102235
6 december, mon
mon601:00+13ene45270 0.0 102147
04:00+12ene44302 0.0 102029
07:00+11ne45310 0.0 102040
10:00+14ne4625100 0.0 1021175
13:00+19e45162 0.0 1020648
16:00+21e3313100 0.0 1017935
19:00+17e331738 0.0 101811
22:00+15e34200 0.0 101918